OE5HCE Weather Reports


time (UTC)temp
C
wind
direction
speed
KPH
gust
KPH
rain 1hr
cm
rain 24hr
cm
rain mn
cm
humidity
%
barometer
mb
20260502163055 25 138 0.0 0.0 0.00 0.00 0.00 21 1019.3
20260502161554 25 90 0.0 0.0 0.00 0.00 0.00 21 1019.5
20260502151549 27 65 0.0 0.0 0.00 0.00 0.00 21 1020.3
20260502150114 26 62 0.0 0.0 0.00 0.00 0.00 25 1020.5
20260502123020 23 72 0.0 0.0 0.00 0.00 0.00 31 1022.2
20260502121523 23 49 0.0 0.0 0.00 0.00 0.00 34 1022.5
20260502114514 23 58 0.0 0.0 0.00 0.00 0.00 33 1022.9
20260502113010 23 58 0.0 0.0 0.00 0.00 0.00 35 1023.1
20260502111512 22 120 0.0 0.0 0.00 0.00 0.00 37 1023.3
20260502110006 22 74 0.0 0.0 0.00 0.00 0.00 37 1023.4
20260502104505 22 79 0.0 0.0 0.00 0.00 0.00 39 1023.6
20260502103115 21 61 0.0 0.0 0.00 0.00 0.00 44 1023.8
20260502101608 21 81 0.0 0.0 0.00 0.00 0.00 45 1024.0
20260502071514 12 85 0.0 0.0 0.00 0.00 0.00 68 1025.8
20260502070007 11 66 0.0 0.0 0.00 0.00 0.00 71 1025.9
20260502064559 11 61 0.0 0.0 0.00 0.00 0.00 72 1025.9
20260502063113 10 90 0.0 0.0 0.00 0.00 0.00 75 1026.0
20260502061550 9 90 0.0 0.0 0.00 0.00 0.00 77 1026.1
20260502060046 8 84 0.0 0.0 0.00 0.00 0.00 78 1026.2
20260502054552 7 84 0.0 0.0 0.00 0.00 0.00 79 1026.2
20260502053043 6 101 0.0 0.0 0.00 0.00 0.00 79 1026.3
20260502051534 6 163 0.0 0.0 0.00 0.00 0.00 79 1026.4
20260502050028 5 163 0.0 0.0 0.00 0.00 0.00 79 1026.5
20260502044524 5 163 0.0 0.0 0.00 0.00 0.00 79 1026.4
20260502043022 4 164 0.0 0.0 0.00 0.00 0.00 80 1026.3
20260502041517 4 163 0.0 0.0 0.00 0.00 0.00 80 1026.3
20260502040012 5 163 0.0 0.0 0.00 0.00 0.00 80 1026.3
20260502034513 5 164 0.0 0.0 0.00 0.00 0.00 80 1026.3
20260502033010 5 131 0.0 0.0 0.00 0.00 0.00 80 1026.2
20260502031508 5 132 0.0 0.0 0.00 0.00 0.00 80 1026.1
20260502030005 5 130 0.0 0.0 0.00 0.00 0.00 80 1026.2
20260502024504 5 132 0.0 0.0 0.00 0.00 0.00 80 1026.4
20260502023003 5 131 0.0 0.0 0.00 0.00 0.00 80 1026.4
20260502021600 5 121 0.0 0.0 0.00 0.00 0.00 79 1026.6
20260502020058 6 121 0.0 0.0 0.00 0.00 0.00 79 1026.6
20260502014557 6 121 0.0 0.0 0.00 0.00 0.00 79 1026.6
20260502013059 6 121 0.0 0.0 0.00 0.00 0.00 78 1026.8
20260502011553 6 122 0.0 0.0 0.00 0.00 0.00 78 1026.8
20260502010055 6 121 0.0 0.0 0.00 0.00 0.00 78 1026.9
20260502004549 7 121 0.0 0.0 0.00 0.00 0.00 77 1027.0
20260502003047 7 121 0.0 0.0 0.00 0.00 0.00 76 1027.0
20260502001545 7 121 0.0 0.0 0.00 0.00 0.00 76 1027.1
20260502000042 7 121 0.0 0.0 0.00 0.00 0.00 75 1027.3
20260501234539 7 121 0.0 0.0 0.00 0.00 0.00 74 1027.4
20260501233050 8 204 0.0 0.0 0.00 0.00 0.00 73 1027.4
20260501231537 8 204 0.0 0.0 0.00 0.00 0.00 73 1027.4
20260501230034 8 204 0.0 0.0 0.00 0.00 0.00 73 1027.5
20260501224605 8 204 0.0 0.0 0.00 0.00 0.00 73 1027.6
20260501223039 8 234 0.0 0.0 0.00 0.00 0.00 73 1027.6
20260501221533 8 234 0.0 0.0 0.00 0.00 0.00 72 1027.6
20260501220028 8 234 0.0 0.0 0.00 0.00 0.00 72 1027.7
20260501214531 8 234 0.0 0.0 0.00 0.00 0.00 72 1027.6
20260501213027 9 190 0.0 0.0 0.00 0.00 0.00 70 1027.5
20260501211529 10 190 0.0 0.0 0.00 0.00 0.00 69 1027.6
20260501210030 10 190 0.0 0.0 0.00 0.00 0.00 67 1027.6
20260501204525 10 190 0.0 0.0 0.00 0.00 0.00 66 1027.7
20260501203028 11 190 0.0 0.0 0.00 0.00 0.00 65 1027.7
20260501201527 11 182 0.0 0.0 0.00 0.00 0.00 63 1027.7
20260501200024 12 105 0.0 0.0 0.00 0.00 0.00 60 1027.8
20260501194523 13 98 0.0 0.0 0.00 0.00 0.00 56 1027.6
20260501193022 14 98 0.0 0.0 0.00 0.00 0.00 54 1027.6
20260501191521 14 98 0.0 0.0 0.00 0.00 0.00 53 1027.6
20260501190021 15 98 0.0 0.0 0.00 0.00 0.00 52 1027.6
20260501184521 16 98 0.0 0.0 0.00 0.00 0.00 50 1027.6
20260501183021 17 98 0.0 0.0 0.00 0.00 0.00 49 1027.5
20260501181520 17 98 0.0 0.0 0.00 0.00 0.00 47 1027.4
20260501180020 17 98 0.0 0.0 0.00 0.00 0.00 46 1027.3
20260501174619 18 98 0.0 0.0 0.00 0.00 0.00 46 1027.2
20260501173022 18 84 0.0 0.0 0.00 0.00 0.00 42 1027.1
20260501171519 20 79 0.0 0.0 0.00 0.00 0.00 41 1027.0
20260501170017 20 88 0.0 0.0 0.00 0.00 0.00 39 1027.2
20260501164515 20 69 0.0 0.0 0.00 0.00 0.00 39 1027.2